sat.trackr.live / text

‹ back to catalog

STARLINK-33850

NORAD 63679 · 2025-085R

PAYLOAD ACTIVE UNKNOWN

§ Identity

Operator
Country
US
Launch date
2025-04-28
Launch site
AFETR
Launch vehicle
Mass (kg)
RCS (m²)

Purposes: comms

External: N2YO · Heavens-Above · Gunter

§ Orbital elements

Epoch: 2026-09-20T08:47:33.079776Z

Period
94.27 min
Inclination
43.0033°
Eccentricity
0.0001304
Mean motion
15.27584911 rev/d
Perigee alt
482.1 km
Apogee alt
483.9 km
Semi-major
6,861.2 km
B*
2.0711e-4
RAAN
11.4429°
Arg perigee
251.5220°
Mean anomaly
108.5490°
Rev number
7,863

§ Raw data

STARLINK-338501 63679U 25085R   26263.36635509  .00005442  00000+0  20711-3 0  99952 63679  43.0033  11.4429 0001304 251.5220 108.5490 15.27584911 78636

JSON: /api/v1/satellites/63679 · /tle

For live sub-satellite position, see the globe view (requires WebGL).

§ Visibility from observer

Set your observer location to see the next 7 days of passes ≥ 10°. The values pass through the URL so the page stays shareable.

No JS? Fill the form by hand. The geolocation button needs JavaScript.